This is the latest recevied weather packets stored in our database for station/object N4PWG. If no packets are shown the sender has not sent any weather packets the latest 10 day(s).
| Time | Temp. | Humidity | Pressure | Rain* | Wind** | Luminosity | Snow |
|---|---|---|---|---|---|---|---|
| 1778195701 | 19.44° C | 44% | 1032.4 hPa | 0 mm | - | 110 W/m² | - |
| 1778195398 | 19.44° C | 50% | 1032.4 hPa | 0 mm | - | 123 W/m² | - |
| 1778195095 | 19.44° C | 45% | 1032.5 hPa | 0 mm | - | 143 W/m² | - |
| 1778194790 | 19.44° C | 44% | 1032.3 hPa | 0 mm | - | 148 W/m² | - |
| 1778194486 | 20° C | 48% | 1032.5 hPa | 0 mm | - | 181 W/m² | - |
| 1778194183 | 20.56° C | 44% | 1032.3 hPa | 0 mm | - | 193 W/m² | - |
| 1778193878 | 20.56° C | 43% | 1032.5 hPa | 0 mm | - | 193 W/m² | - |
| 1778193575 | 20.56° C | 42% | 1032.6 hPa | 0 mm | - | 201 W/m² | - |
| 1778193271 | 20° C | 42% | 1032.6 hPa | 0 mm | - | 225 W/m² | - |
| 1778192969 | 20.56° C | 43% | 1032.5 hPa | 0 mm | - | 227 W/m² | - |
| 1778192666 | 20° C | 43% | 1032.4 hPa | 0 mm | - | 235 W/m² | - |
| 1778192362 | 21.11° C | 41% | 1032.6 hPa | 0 mm | - | 248 W/m² | - |
| 1778192059 | 20° C | 46% | 1032.6 hPa | 0 mm | - | 260 W/m² | - |
| 1778191754 | 20° C | 45% | 1032.7 hPa | 0 mm | - | 280 W/m² | - |
| 1778191453 | 20° C | 46% | 1032.8 hPa | 0 mm | - | 293 W/m² | - |
| 1778191149 | 20° C | 45% | 1032.6 hPa | 0 mm | - | 315 W/m² | - |
| 1778190846 | 20° C | 46% | 1032.6 hPa | 0 mm | - | 322 W/m² | - |
| 1778190543 | 19.44° C | 44% | 1032.5 hPa | 0 mm | - | 380 W/m² | - |
| 1778190241 | 20.56° C | 41% | 1032.8 hPa | 0 mm | - | 406 W/m² | - |
| 1778189936 | 20° C | 46% | 1032.5 hPa | 0 mm | - | 413 W/m² | - |
| 1778189633 | 19.44° C | 45% | 1032.4 hPa | 0 mm | - | 428 W/m² | - |
| 1778189330 | 19.44° C | 45% | 1032.5 hPa | 0 mm | - | 419 W/m² | - |
| 1778189026 | 19.44° C | 42% | 1032.2 hPa | 0 mm | - | 418 W/m² | - |
| 1778188722 | 19.44° C | 43% | 1032.3 hPa | 0 mm | - | 444 W/m² | - |
| 1778188419 | 19.44° C | 46% | 1032.4 hPa | 0 mm | - | 438 W/m² | - |
* Rain latest hour (hover to see other rain measurements)
** Current wind speed in m/s (hover to see current wind gust speed)